Weather History for Three Rivers, MI

Change the Weather History Date:

Monday, January 28, 2013

  Actual Average Record
Temperature  
Mean Temperature 39 °F -  
Max Temperature 46 °F 30 °F 51 °F (1990)
Min Temperature 32 °F 15 °F -15 °F (2014)
Degree Days  
Heating Degree Days 26    
Moisture  
Dew Point 38 °F    
Average Humidity 95    
Maximum Humidity 97    
Minimum Humidity 90    
Precipitation  
Precipitation 0.00 in - - ()
Sea Level Pressure  
Sea Level Pressure 29.93 in    
Wind  
Wind Speed 9 mph (SW)    
Max Wind Speed 15 mph    
Max Gust Speed 16 mph    
Visibility 1 miles    
Events Fog , Rain , Snow    
Averages and records for this station are not official NWS values.
T = Trace of Precipitation, MM = Missing Value Source: NWS Daily Summary

Daily Weather History Graph

Daily Weather History Graph

Search for Another Location

Airport:

Trip Planner

Search our weather history database for the weather conditions in past years. The results will help you decide how hot, cold, wet, or windy it might be!

Date:

Astronomy

Jan. 28, 2013 Rise Set
Actual Time 7:58 AM EST 5:52 PM EST
Civil Twilight 7:28 AM EST 6:22 PM EST
Nautical Twilight 6:55 AM EST 6:56 PM EST
Astronomical Twilight 6:22 AM EST 7:28 PM EST
Moon 7:49 PM EST (1/28) 8:21 AM EST (1/28)
Length of Visible Light 10h 53m
Length of Day
9h 53m
Full, 98% of the Moon is Illuminated
Jan 28
Full
Feb 3
Last Quarter
Feb 10
New
Feb 17
First Quarter
Feb 25
Full

Hourly Weather History & Observations

Time (EST) Temp. Windchill Dew Point Humidity Pressure Visibility Wind Dir Wind Speed Gust Speed Precip Events Conditions
12:14 AM 32.5 °F 23.7 °F 30.2 °F 91% 30.03 in 5.0 mi South 11.5 mph - N/A   Overcast
12:35 AM 32.9 °F 23.7 °F 30.4 °F 90% 30.02 in 5.0 mi South 12.7 mph 16.1 mph N/A   Overcast
1:14 AM 32.9 °F 25.3 °F 31.1 °F 93% 30.01 in 3.0 mi South 9.2 mph - N/A   Overcast
1:35 AM 33.1 °F 23.9 °F 31.5 °F 94% 29.99 in 1.8 mi South 12.7 mph - N/A   Overcast
1:55 AM 33.4 °F 23.5 °F 32.0 °F 94% 29.98 in 1.5 mi South 15.0 mph - N/A   Drizzle
2:14 AM 33.4 °F 24.3 °F 32.0 °F 94% 29.97 in 1.5 mi South 12.7 mph - N/A   Light Drizzle
2:35 AM 33.8 °F 25.3 °F 32.0 °F 93% 29.96 in 1.5 mi South 11.5 mph - N/A Snow Light Snow
2:55 AM 34.0 °F 26.0 °F 32.4 °F 94% 29.96 in 1.5 mi South 10.4 mph - N/A Rain Light Rain
3:14 AM 34.0 °F 26.6 °F 32.4 °F 94% 29.95 in 1.5 mi South 9.2 mph - N/A   Light Drizzle
3:35 AM 34.7 °F 27.5 °F 33.3 °F 94% 29.94 in 1.2 mi South 9.2 mph - N/A   Drizzle
3:54 AM 34.9 °F 27.7 °F 33.3 °F 94% 29.93 in 1.5 mi South 9.2 mph - N/A   Light Drizzle
4:15 AM 35.2 °F 28.1 °F 33.8 °F 94% 29.92 in 1.0 mi South 9.2 mph - N/A   Drizzle
4:35 AM 35.6 °F 29.2 °F 34.2 °F 94% 29.91 in 1.2 mi South 8.1 mph - N/A Rain Light Rain
4:54 AM 35.4 °F 29.0 °F 33.8 °F 94% 29.91 in 1.0 mi South 8.1 mph - N/A   Drizzle
5:15 AM 35.6 °F 28.6 °F 34.3 °F 95% 29.90 in 1.2 mi South 9.2 mph - N/A Rain Light Rain
5:35 AM 36.1 °F 29.3 °F 34.9 °F 95% 29.89 in 1.0 mi South 9.2 mph - N/A Rain Light Rain
5:54 AM 36.5 °F 29.7 °F 35.2 °F 95% 29.88 in 0.5 mi South 9.2 mph - N/A Fog Fog
6:15 AM 37.8 °F 31.3 °F 36.5 °F 95% 29.88 in 0.5 mi SSW 9.2 mph - N/A Fog Fog
6:35 AM 39.9 °F 32.5 °F 38.7 °F 95% 29.87 in 1.0 mi SSW 12.7 mph - N/A   Overcast
6:54 AM 40.1 °F 32.7 °F 38.7 °F 95% 29.87 in 0.8 mi SSW 12.7 mph - N/A Rain Rain
7:15 AM 40.3 °F 33.4 °F 39.0 °F 95% 29.86 in 0.5 mi SSW 11.5 mph - N/A Rain Light Rain
7:35 AM 40.1 °F 33.6 °F 38.8 °F 95% 29.86 in 0.2 mi SW 10.4 mph - N/A Rain Rain
7:54 AM 39.9 °F 32.9 °F 38.7 °F 95% 29.86 in 0.8 mi SSW 11.5 mph - N/A Rain Heavy Rain
8:15 AM 40.3 °F 33.9 °F 39.2 °F 96% 29.86 in 0.8 mi SSW 10.4 mph - N/A   Drizzle
8:34 AM 41.0 °F 33.9 °F 39.7 °F 95% 29.87 in 0.5 mi SSW 12.7 mph - N/A   Drizzle
8:55 AM 41.5 °F 34.6 °F 40.3 °F 95% 29.87 in 1.0 mi SSW 12.7 mph - N/A   Light Drizzle
9:15 AM 41.9 °F 35.0 °F 40.5 °F 95% 29.87 in 0.8 mi SSW 12.7 mph - N/A Rain Light Rain
9:34 AM 41.9 °F 35.4 °F 40.8 °F 96% 29.87 in 0.5 mi SSW 11.5 mph - N/A Rain Light Rain
9:55 AM 41.9 °F 35.9 °F 40.6 °F 95% 29.87 in 0.2 mi SSW 10.4 mph - N/A Rain Light Rain
10:15 AM 42.4 °F 37.5 °F 41.4 °F 96% 29.88 in 0.5 mi SW 8.1 mph - N/A Rain Light Rain
10:34 AM 43.3 °F 38.1 °F 42.1 °F 95% 29.88 in 0.8 mi SW 9.2 mph - N/A   Drizzle
10:55 AM 44.8 °F 41.0 °F 43.9 °F 97% 29.89 in 1.0 mi SW 6.9 mph - N/A   Overcast
11:14 AM 44.8 °F 40.4 °F 43.5 °F 95% 29.89 in 0.8 mi SW 8.1 mph - N/A   Overcast
11:35 AM 46.0 °F 41.9 °F 45.0 °F 96% 29.90 in 1.0 mi SW 8.1 mph - N/A   Overcast
11:55 AM 46.2 °F 41.7 °F 45.0 °F 95% 29.89 in 1.0 mi SW 9.2 mph - N/A   Overcast
12:15 PM 46.6 °F - 45.5 °F 96% 29.89 in 1.2 mi WSW 8.1 mph - N/A   Overcast
12:35 PM 46.8 °F - 45.7 °F 96% 29.89 in 1.0 mi WSW 10.4 mph 16.1 mph N/A   Overcast
12:54 PM 46.6 °F - 45.5 °F 96% 29.89 in 0.8 mi WSW 9.2 mph - N/A   Overcast
1:15 PM 46.6 °F - 45.5 °F 96% 29.89 in 0.8 mi SW 8.1 mph - N/A   Overcast
1:35 PM 46.4 °F 42.9 °F 45.5 °F 97% 29.89 in 0.8 mi WSW 6.9 mph - N/A   Overcast
1:54 PM 46.4 °F 43.5 °F 45.3 °F 96% 29.89 in 0.8 mi WSW 5.8 mph - N/A Rain Light Rain
2:15 PM 46.4 °F 41.9 °F 45.1 °F 95% 29.89 in 1.2 mi West 9.2 mph - N/A   Overcast
2:35 PM 45.0 °F 39.7 °F 43.9 °F 96% 29.90 in 1.5 mi WNW 10.4 mph - N/A   Overcast
2:54 PM 44.1 °F 39.0 °F 43.0 °F 96% 29.90 in 0.8 mi WNW 9.2 mph - N/A   Overcast
3:15 PM 43.2 °F 40.5 °F 42.1 °F 96% 29.91 in 0.5 mi WNW 4.6 mph - N/A Fog Fog
3:35 PM 42.4 °F 37.0 °F 41.2 °F 95% 29.91 in 1.0 mi WNW 9.2 mph - N/A   Overcast
3:54 PM 41.9 °F 37.5 °F 40.8 °F 96% 29.92 in 1.5 mi WNW 6.9 mph - N/A   Overcast
4:15 PM 41.5 °F 37.1 °F 40.3 °F 95% 29.93 in 0.5 mi WNW 6.9 mph - N/A Fog Fog
4:35 PM 41.2 °F 37.3 °F 40.1 °F 96% 29.94 in 1.2 mi NW 5.8 mph - N/A   Overcast
4:55 PM 41.0 °F 38.0 °F 39.6 °F 95% 29.95 in 0.8 mi WNW 4.6 mph - N/A   Overcast
5:15 PM 39.7 °F 36.5 °F 38.5 °F 95% 29.95 in 1.5 mi WNW 4.6 mph - N/A   Overcast
5:34 PM 39.4 °F - 38.1 °F 95% 29.96 in 0.8 mi Calm Calm - N/A   Overcast
5:55 PM 39.9 °F - 38.5 °F 95% 29.96 in 0.5 mi Calm Calm - N/A Fog Fog
6:15 PM 39.9 °F - 38.5 °F 95% 29.96 in 0.8 mi Calm Calm - N/A   Overcast
6:34 PM 38.5 °F - 37.0 °F 95% 29.97 in 0.5 mi Calm Calm - N/A Fog Fog
6:55 PM 39.2 °F - 37.8 °F 95% 29.98 in 0.5 mi Calm Calm - N/A Fog Fog
7:15 PM 38.7 °F - 37.4 °F 95% 29.98 in 0.5 mi Calm Calm - N/A Fog Fog
7:34 PM 38.3 °F - 37.0 °F 95% 29.99 in 0.5 mi Calm Calm - N/A Fog Fog
7:55 PM 37.6 °F - 36.5 °F 96% 29.99 in 0.5 mi Calm Calm - N/A Fog Fog
8:15 PM 36.3 °F - 35.2 °F 96% 30.00 in 0.2 mi Calm Calm - N/A Fog Fog
8:34 PM 36.3 °F - 35.1 °F 95% 30.00 in 0.2 mi Calm Calm - N/A Fog Fog
8:55 PM 36.1 °F - 35.2 °F 97% 29.99 in 0.2 mi Calm Calm - N/A Fog Fog
9:15 PM 36.1 °F - 35.2 °F 97% 29.99 in 0.2 mi Calm Calm - N/A Fog Fog
9:34 PM 35.8 °F - 34.9 °F 97% 29.98 in 0.2 mi Calm Calm - N/A Fog Fog
9:55 PM 36.5 °F - 35.6 °F 97% 29.98 in 0.5 mi Calm Calm - N/A Fog Fog
10:15 PM 36.5 °F - 35.6 °F 97% 29.98 in 0.5 mi Calm Calm - N/A Fog Fog
10:35 PM 36.3 °F 31.6 °F 35.4 °F 97% 29.97 in 0.5 mi East 5.8 mph - N/A Fog Fog
10:55 PM 36.5 °F 33.9 °F 35.6 °F 97% 29.98 in 0.8 mi East 3.5 mph - N/A   Overcast
11:14 PM 36.5 °F - 35.6 °F 97% 29.98 in 0.8 mi Calm Calm - N/A   Overcast
11:35 PM 36.7 °F - 35.8 °F 97% 29.97 in 0.5 mi Calm Calm - N/A Fog Fog
11:55 PM 36.7 °F 34.1 °F 35.8 °F 97% 29.97 in 0.8 mi East 3.5 mph - N/A   Overcast